STARLINK-37052

operational
NORAD ID: 70116 Constellation: starlink
LEOCIRCULAR

STARLINK-37052について

説明を読み込み中...

リアルタイム位置

3D地球を読み込み中...

次回通過

高度履歴

Altitude vs Time

uPlot chart will show altitude changes over time

軌道要素

1 70116C 26050N 26073.73243056 .00569660 00000+0 74681-3 0 739
2 70116 53.1639 257.6159 0011191 268.3166 224.6694 16.05472156 15
Epoch: Mar 14, 2026 • Age: 48 hours

現在のステータス

高度 256.6 km
速度 7.75 km/s
衛星直下点 -0.33°S, 96.87°W
打ち上げ日 Mar 14, 2026
運用期間 1 days
タイプ internet

大規模コンステレーション

Loading constellations...